START_TIME,STEP,MOV.,H8,t_acc.,H43,t_acc.,M25,t_acc.,H9,t_acc.
1979-03-01 12:00:18.960 ,4,0,0.,12.0,0.,12.0,0.,12.0,0.,12.0
1979-03-01 12:00:30.960 ,4,0,0.,12.0,0.,12.0,0.,12.0,0.,12.0
1979-03-01 12:00:42.960 ,3,0,0.,12.0,0.,12.0,0.,12.0,0.,12.0
1979-03-01 12:00:54.960 ,3,0,0.,12.0,0.,12.0,0.,12.0,0.,12.0
1979-03-01 12:01:06.960 ,2,0,0.,12.0,0.,12.0,0.,12.0,0.,12.0
1979-03-01 12:01:18.960 ,2,0,0.,12.0,0.,12.0,0.,12.0,0.,12.0
1979-03-01 12:01:30.960 ,1,0,0.,12.0,0.,12.0,0.,12.0,0.,12.0
1979-03-01 12:01:42.960 ,1,0,0.,12.0,0.,12.0,0.,12.0,0.,12.0
1979-03-01 12:01:54.960 ,0,0,0.,12.0,0.,12.0,0.,12.0,0.,12.0
1979-03-01 12:02:06.960 ,0,0,0.,12.0,0.,12.0,0.,12.0,0.,12.0
1979-03-01 12:02:18.960 ,0,0,0.,12.0,0.,12.0,0.,12.0,0.,12.0
1979-03-01 12:02:30.960 ,0,0,0.,12.0,0.,12.0,0.,12.0,0.,12.0
1979-03-01 12:02:42.960 ,1,0,0.,12.0,0.,12.0,0.,12.0,0.,12.0
1979-03-01 12:02:54.960 ,1,0,0.,12.0,0.,12.0,0.,12.0,0.,12.0
1979-03-01 12:03:06.960 ,2,0,0.,12.0,0.,12.0,0.,12.0,0.,12.0
1979-03-01 12:03:18.960 ,2,0,0.,12.0,0.,12.0,0.,12.0,0.,12.0
1979-03-01 12:03:30.960 ,3,0,0.,12.0,0.,12.0,0.,12.0,0.,12.0
1979-03-01 12:03:42.960 ,3,0,1.,12.0,0.,12.0,0.,12.0,0.,12.0
1979-03-01 12:03:54.960 ,4,0,0.,12.0,0.,12.0,0.,12.0,0.,12.0
1979-03-01 12:04:06.960 ,4,0,0.,12.0,0.,12.0,0.,12.0,0.,12.0
1979-03-01 12:04:18.960 ,5,0,0.,12.0,0.,12.0,0.,12.0,0.,12.0
1979-03-01 12:04:30.960 ,5,0,0.,12.0,0.,12.0,0.,12.0,0.,12.0
1979-03-01 12:04:42.950 ,6,0,0.,12.0,0.,12.0,0.,12.0,0.,12.0
1979-03-01 12:04:54.950 ,6,0,0.,12.0,0.,12.0,0.,12.0,0.,12.0
1979-03-01 12:05:06.950 ,7,0,0.,12.0,0.,12.0,0.,12.0,0.,12.0
1979-03-01 12:05:18.950 ,7,0,0.,12.0,0.,12.0,0.,12.0,0.,12.0
1979-03-01 12:05:30.950 ,7,0,0.,12.0,0.,12.0,0.,12.0,0.,12.0
1979-03-01 12:05:42.950 ,7,0,0.,12.0,0.,12.0,0.,12.0,0.,12.0
1979-03-01 12:05:54.950 ,6,0,0.,12.0,0.,12.0,0.,12.0,0.,12.0
1979-03-01 12:06:06.950 ,6,0,0.,12.0,0.,12.0,0.,12.0,0.,12.0
1979-03-01 12:06:18.950 ,5,0,0.,12.0,0.,12.0,0.,12.0,0.,12.0
1979-03-01 12:06:30.950 ,5,0,0.,12.0,0.,12.0,0.,12.0,0.,12.0
1979-03-01 12:06:42.950 ,4,0,0.,12.0,0.,12.0,0.,12.0,0.,12.0
1979-03-01 12:06:54.950 ,4,0,0.,12.0,0.,12.0,0.,12.0,0.,12.0
1979-03-01 12:07:06.950 ,3,0,1.,12.0,0.,12.0,0.,12.0,0.,12.0
1979-03-01 12:07:18.950 ,3,0,1.,12.0,0.,12.0,0.,12.0,0.,12.0
1979-03-01 12:07:30.950 ,2,0,0.,12.0,0.,12.0,0.,12.0,0.,12.0
1979-03-01 12:07:42.950 ,2,0,0.,12.0,0.,12.0,0.,12.0,0.,12.0
1979-03-01 12:07:54.950 ,1,0,0.,12.0,0.,12.0,0.,12.0,0.,12.0
1979-03-01 12:08:06.950 ,1,0,0.,12.0,0.,12.0,0.,12.0,0.,12.0
1979-03-01 12:08:18.950 ,0,0,0.,12.0,0.,12.0,0.,12.0,0.,12.0
1979-03-01 12:08:30.950 ,0,0,0.,12.0,0.,12.0,0.,12.0,0.,12.0
1979-03-01 12:08:42.960 ,0,0,0.,12.0,0.,12.0,0.,12.0,0.,12.0
1979-03-01 12:08:54.960 ,0,0,0.,12.0,0.,12.0,0.,12.0,0.,12.0
1979-03-01 12:09:06.960 ,1,0,0.,12.0,0.,12.0,0.,12.0,0.,12.0
1979-03-01 12:09:18.960 ,1,0,0.,12.0,0.,12.0,0.,12.0,0.,12.0
1979-03-01 12:09:30.960 ,2,0,0.,12.0,0.,12.0,0.,12.0,0.,12.0
1979-03-01 12:09:42.960 ,2,0,0.,12.0,0.,12.0,0.,12.0,0.,12.0
1979-03-01 12:09:54.960 ,3,0,1.,12.0,0.,12.0,0.,12.0,0.,12.0
1979-03-01 12:10:06.960 ,3,0,0.,12.0,0.,12.0,0.,12.0,0.,12.0
1979-03-01 12:10:18.960 ,4,0,0.,12.0,0.,12.0,0.,12.0,0.,12.0
1979-03-01 12:10:30.960 ,4,0,0.,12.0,0.,12.0,0.,12.0,0.,12.0
1979-03-01 12:10:42.960 ,5,0,0.,12.0,0.,12.0,0.,12.0,0.,12.0
1979-03-01 12:10:54.960 ,5,0,0.,12.0,0.,12.0,0.,12.0,0.,12.0
1979-03-01 12:11:06.960 ,6,0,0.,12.0,0.,12.0,0.,12.0,0.,12.0
1979-03-01 12:11:18.960 ,6,0,0.,12.0,0.,12.0,0.,12.0,0.,12.0
1979-03-01 12:11:30.960 ,7,0,1.,12.0,0.,12.0,0.,12.0,0.,12.0
1979-03-01 12:11:42.960 ,7,0,0.,12.0,0.,12.0,0.,12.0,0.,12.0
1979-03-01 12:11:54.960 ,7,0,0.,12.0,0.,12.0,0.,12.0,0.,12.0
1979-03-01 12:12:06.960 ,7,0,0.,12.0,0.,12.0,0.,12.0,0.,12.0
1979-03-01 12:12:18.960 ,6,0,0.,12.0,0.,12.0,0.,12.0,0.,12.0
1979-03-01 12:12:30.960 ,6,0,0.,12.0,0.,12.0,0.,12.0,0.,12.0
1979-03-01 12:12:42.960 ,5,0,0.,12.0,0.,12.0,0.,12.0,0.,12.0
1979-03-01 12:12:54.960 ,5,0,0.,12.0,0.,12.0,0.,12.0,0.,12.0
1979-03-01 12:13:06.960 ,4,0,0.,12.0,0.,12.0,0.,12.0,0.,12.0
1979-03-01 12:13:18.960 ,4,0,0.,12.0,0.,12.0,0.,12.0,0.,12.0
1979-03-01 12:14:18.960 ,0,0,0.,12.0,0.,12.0,0.,12.0,0.,12.0
1979-03-01 12:14:30.960 ,0,0,0.,12.0,0.,12.0,0.,12.0,0.,12.0
1979-03-01 12:14:42.960 ,0,0,0.,12.0,0.,12.0,0.,12.0,0.,12.0
1979-03-01 12:14:54.960 ,0,0,0.,12.0,0.,12.0,0.,12.0,0.,12.0
1979-03-01 12:15:06.960 ,0,0,0.,12.0,0.,12.0,0.,12.0,0.,12.0
1979-03-01 12:15:18.960 ,0,0,0.,12.0,0.,12.0,0.,12.0,0.,12.0
1979-03-01 12:15:30.960 ,1,0,0.,12.0,0.,12.0,0.,12.0,0.,12.0
1979-03-01 12:15:42.960 ,1,0,0.,12.0,0.,12.0,0.,12.0,0.,12.0
1979-03-01 12:15:54.960 ,2,0,0.,12.0,0.,12.0,0.,12.0,0.,12.0
1979-03-01 12:16:06.960 ,2,0,0.,12.0,0.,12.0,0.,12.0,0.,12.0
1979-03-01 12:16:18.960 ,3,0,0.,12.0,0.,12.0,0.,12.0,0.,12.0
1979-03-01 12:16:30.960 ,3,0,1.,12.0,0.,12.0,0.,12.0,0.,12.0
1979-03-01 12:16:42.960 ,4,0,0.,12.0,0.,12.0,0.,12.0,0.,12.0
1979-03-01 12:16:54.960 ,4,0,0.,12.0,0.,12.0,0.,12.0,0.,12.0
1979-03-01 12:17:06.950 ,5,0,0.,12.0,0.,12.0,0.,12.0,0.,12.0
1979-03-01 12:17:18.960 ,5,0,0.,12.0,0.,12.0,0.,12.0,0.,12.0
1979-03-01 12:17:30.950 ,6,0,0.,12.0,0.,12.0,0.,12.0,0.,12.0
1979-03-01 12:17:42.950 ,6,0,0.,12.0,0.,12.0,0.,12.0,0.,12.0
1979-03-01 12:17:54.950 ,7,0,0.,12.0,0.,12.0,0.,12.0,0.,12.0
1979-03-01 12:18:06.950 ,7,0,0.,12.0,0.,12.0,0.,12.0,0.,12.0
1979-03-01 12:18:18.950 ,7,0,0.,12.0,0.,12.0,0.,12.0,0.,12.0
1979-03-01 12:18:30.950 ,7,0,0.,12.0,0.,12.0,0.,12.0,0.,12.0
1979-03-01 12:18:42.950 ,6,0,0.,12.0,0.,12.0,0.,12.0,0.,12.0
1979-03-01 12:18:54.950 ,6,0,0.,12.0,0.,12.0,0.,12.0,0.,12.0
1979-03-01 12:19:06.950 ,5,0,0.,12.0,0.,12.0,0.,12.0,0.,12.0
1979-03-01 12:19:18.950 ,5,0,0.,12.0,0.,12.0,0.,12.0,0.,12.0
1979-03-01 12:19:30.950 ,4,0,0.,12.0,0.,12.0,0.,12.0,0.,12.0
1979-03-01 12:19:42.950 ,4,0,0.,12.0,0.,12.0,0.,12.0,0.,12.0
1979-03-01 12:19:54.950 ,3,0,0.,12.0,0.,12.0,0.,12.0,0.,12.0
1979-03-01 12:20:06.950 ,3,0,0.,12.0,0.,12.0,0.,12.0,0.,12.0
1979-03-01 12:20:18.950 ,2,0,0.,12.0,0.,12.0,0.,12.0,0.,12.0
1979-03-01 12:20:30.950 ,2,0,0.,12.0,0.,12.0,0.,12.0,0.,12.0
1979-03-01 12:20:42.950 ,1,0,1.,12.0,0.,12.0,0.,12.0,0.,12.0
1979-03-01 12:20:54.950 ,1,0,0.,12.0,0.,12.0,0.,12.0,0.,12.0
1979-03-01 12:21:06.950 ,0,0,0.,12.0,0.,12.0,0.,12.0,0.,12.0
1979-03-01 12:21:18.950 ,0,0,0.,12.0,0.,12.0,0.,12.0,0.,12.0
1979-03-01 12:21:30.950 ,0,0,0.,12.0,0.,12.0,0.,12.0,0.,12.0
1979-03-01 12:21:42.950 ,0,0,0.,12.0,0.,12.0,0.,12.0,0.,12.0
1979-03-01 12:21:54.950 ,1,0,0.,12.0,0.,12.0,0.,12.0,0.,12.0
1979-03-01 12:22:06.950 ,1,0,0.,12.0,0.,12.0,0.,12.0,0.,12.0
1979-03-01 12:22:18.950 ,2,0,0.,12.0,0.,12.0,0.,12.0,0.,12.0
1979-03-01 12:22:30.950 ,2,0,0.,12.0,0.,12.0,0.,12.0,0.,12.0
1979-03-01 12:22:42.950 ,3,0,0.,12.0,0.,12.0,0.,12.0,0.,12.0
1979-03-01 12:22:54.950 ,3,0,0.,12.0,0.,12.0,0.,12.0,0.,12.0
1979-03-01 12:23:06.950 ,4,0,0.,12.0,0.,12.0,0.,12.0,0.,12.0
1979-03-01 12:23:18.950 ,4,0,0.,12.0,0.,12.0,0.,12.0,0.,12.0
1979-03-01 12:23:30.950 ,5,0,0.,12.0,0.,12.0,0.,12.0,0.,12.0
1979-03-01 12:23:42.950 ,5,0,0.,12.0,0.,12.0,0.,12.0,0.,12.0
1979-03-01 12:23:54.950 ,6,0,0.,12.0,0.,12.0,0.,12.0,0.,12.0
1979-03-01 12:24:06.950 ,6,0,0.,12.0,0.,12.0,0.,12.0,0.,12.0
1979-03-01 12:24:18.950 ,7,0,0.,12.0,0.,12.0,0.,12.0,0.,12.0
1979-03-01 12:24:30.950 ,7,0,0.,12.0,0.,12.0,0.,12.0,0.,12.0
1979-03-01 12:24:42.950 ,7,0,0.,12.0,0.,12.0,0.,12.0,0.,12.0
1979-03-01 12:24:54.950 ,7,0,0.,12.0,0.,12.0,0.,12.0,0.,12.0
1979-03-01 12:25:06.950 ,6,0,0.,12.0,0.,12.0,0.,12.0,0.,12.0
1979-03-01 12:25:18.950 ,6,0,0.,12.0,0.,12.0,0.,12.0,0.,12.0
1979-03-01 12:25:30.950 ,5,0,0.,12.0,0.,12.0,0.,12.0,0.,12.0
1979-03-01 12:25:42.950 ,5,0,0.,12.0,0.,12.0,0.,12.0,0.,12.0
1979-03-01 12:25:54.950 ,4,0,0.,12.0,0.,12.0,0.,12.0,0.,12.0
1979-03-01 12:26:06.950 ,4,0,0.,12.0,0.,12.0,0.,12.0,0.,12.0
1979-03-01 12:26:18.950 ,3,0,0.,12.0,0.,12.0,0.,12.0,0.,12.0
1979-03-01 12:26:30.950 ,3,0,0.,12.0,0.,12.0,0.,12.0,0.,12.0
1979-03-01 12:26:42.950 ,2,0,1.,12.0,0.,12.0,0.,12.0,0.,12.0
1979-03-01 12:26:54.950 ,2,0,0.,12.0,0.,12.0,0.,12.0,0.,12.0
1979-03-01 12:27:06.950 ,1,0,0.,12.0,0.,12.0,0.,12.0,0.,12.0
1979-03-01 12:27:18.950 ,1,0,0.,12.0,0.,12.0,0.,12.0,0.,12.0
1979-03-01 12:27:30.950 ,0,0,0.,12.0,0.,12.0,0.,12.0,0.,12.0
1979-03-01 12:27:42.950 ,0,0,0.,12.0,0.,12.0,0.,12.0,0.,12.0
1979-03-01 12:27:54.950 ,0,0,0.,12.0,0.,12.0,0.,12.0,0.,12.0
1979-03-01 12:28:06.950 ,0,0,0.,12.0,0.,12.0,0.,12.0,0.,12.0
1979-03-01 12:28:18.950 ,1,0,0.,12.0,0.,12.0,0.,12.0,0.,12.0
1979-03-01 12:28:30.950 ,1,0,0.,12.0,0.,12.0,0.,12.0,0.,12.0
1979-03-01 12:28:42.950 ,2,0,0.,12.0,0.,12.0,0.,12.0,0.,12.0
1979-03-01 12:28:54.950 ,2,0,0.,12.0,0.,12.0,0.,12.0,0.,12.0
1979-03-01 12:29:06.950 ,3,0,0.,12.0,0.,12.0,0.,12.0,0.,12.0
1979-03-01 12:29:18.950 ,3,0,0.,12.0,0.,12.0,0.,12.0,0.,12.0
1979-03-01 12:29:30.950 ,4,0,0.,12.0,0.,12.0,0.,12.0,0.,12.0
1979-03-01 12:29:42.950 ,4,0,1.,12.0,0.,12.0,0.,12.0,0.,12.0
1979-03-01 12:29:54.950 ,5,0,0.,12.0,0.,12.0,0.,12.0,0.,12.0
1979-03-01 12:30:06.950 ,5,0,0.,12.0,0.,12.0,0.,12.0,0.,12.0
1979-03-01 12:30:18.950 ,6,0,0.,12.0,0.,12.0,0.,12.0,0.,12.0
1979-03-01 12:30:30.950 ,6,0,0.,12.0,0.,12.0,0.,12.0,0.,12.0
1979-03-01 12:30:42.950 ,7,0,0.,12.0,0.,12.0,0.,12.0,0.,12.0
1979-03-01 12:30:54.950 ,7,0,0.,12.0,0.,12.0,0.,12.0,0.,12.0
1979-03-01 12:31:06.950 ,7,0,0.,12.0,0.,12.0,0.,12.0,0.,12.0
1979-03-01 12:31:18.950 ,7,0,0.,12.0,0.,12.0,0.,12.0,0.,12.0
1979-03-01 12:31:30.950 ,6,0,0.,12.0,0.,12.0,0.,12.0,0.,12.0
1979-03-01 12:31:42.950 ,6,0,0.,12.0,0.,12.0,0.,12.0,0.,12.0
1979-03-01 12:31:54.950 ,5,0,0.,12.0,0.,12.0,0.,12.0,0.,12.0
1979-03-01 12:32:06.950 ,5,0,0.,12.0,0.,12.0,0.,12.0,0.,12.0
1979-03-01 12:32:18.950 ,4,0,0.,12.0,0.,12.0,0.,12.0,0.,12.0
1979-03-01 12:32:30.950 ,4,0,0.,12.0,0.,12.0,0.,12.0,0.,12.0
1979-03-01 12:32:42.950 ,3,0,0.,12.0,0.,12.0,0.,12.0,0.,12.0
1979-03-01 12:32:54.950 ,3,0,0.,12.0,0.,12.0,0.,12.0,0.,12.0
1979-03-01 12:33:06.950 ,2,0,0.,12.0,0.,12.0,0.,12.0,0.,12.0
1979-03-01 12:33:18.950 ,2,0,0.,12.0,0.,12.0,0.,12.0,0.,12.0
1979-03-01 12:33:30.950 ,1,0,0.,12.0,0.,12.0,0.,12.0,0.,12.0
1979-03-01 12:33:42.950 ,1,0,0.,12.0,0.,12.0,0.,12.0,0.,12.0
1979-03-01 12:33:54.950 ,0,0,0.,12.0,0.,12.0,0.,12.0,0.,12.0
1979-03-01 12:34:06.950 ,0,0,0.,12.0,0.,12.0,0.,12.0,0.,12.0
1979-03-01 12:34:18.960 ,0,0,0.,12.0,0.,12.0,0.,12.0,0.,12.0
1979-03-01 12:34:30.960 ,0,0,0.,12.0,0.,12.0,0.,12.0,0.,12.0
1979-03-01 12:34:42.960 ,1,0,0.,12.0,0.,12.0,0.,12.0,0.,12.0
1979-03-01 12:34:54.960 ,1,0,0.,12.0,0.,12.0,0.,12.0,0.,12.0
1979-03-01 12:35:06.960 ,2,0,0.,12.0,0.,12.0,0.,12.0,0.,12.0
1979-03-01 12:35:18.960 ,2,0,0.,12.0,0.,12.0,0.,12.0,0.,12.0
1979-03-01 12:35:30.960 ,3,0,0.,12.0,0.,12.0,0.,12.0,0.,12.0
1979-03-01 12:35:42.960 ,3,0,0.,12.0,0.,12.0,0.,12.0,0.,12.0
1979-03-01 12:35:54.960 ,4,0,0.,12.0,0.,12.0,0.,12.0,0.,12.0
1979-03-01 12:36:06.960 ,4,0,0.,12.0,0.,12.0,0.,12.0,0.,12.0
1979-03-01 12:36:18.960 ,5,0,0.,12.0,0.,12.0,0.,12.0,0.,12.0
1979-03-01 12:36:30.960 ,5,0,0.,12.0,0.,12.0,0.,12.0,0.,12.0
1979-03-01 12:36:42.960 ,6,0,0.,12.0,0.,12.0,0.,12.0,0.,12.0
1979-03-01 12:36:54.960 ,6,0,0.,12.0,0.,12.0,0.,12.0,0.,12.0
1979-03-01 12:37:06.960 ,7,0,0.,12.0,0.,12.0,0.,12.0,0.,12.0
1979-03-01 12:37:18.960 ,7,0,0.,12.0,0.,12.0,0.,12.0,0.,12.0
1979-03-01 12:37:30.960 ,7,0,0.,12.0,0.,12.0,0.,12.0,0.,12.0
1979-03-01 12:37:42.960 ,7,0,0.,12.0,0.,12.0,0.,12.0,0.,12.0
1979-03-01 12:37:54.960 ,6,0,0.,12.0,0.,12.0,0.,12.0,0.,12.0
1979-03-01 12:38:06.960 ,6,0,0.,12.0,0.,12.0,0.,12.0,0.,12.0
1979-03-01 12:38:18.960 ,5,0,0.,12.0,0.,12.0,0.,12.0,0.,12.0
1979-03-01 12:38:30.960 ,5,0,0.,12.0,0.,12.0,0.,12.0,0.,12.0
1979-03-01 12:38:42.960 ,4,0,0.,12.0,0.,12.0,0.,12.0,0.,12.0
1979-03-01 12:38:54.960 ,4,0,0.,12.0,0.,12.0,0.,12.0,0.,12.0
1979-03-01 12:39:06.960 ,3,0,0.,12.0,0.,12.0,0.,12.0,0.,12.0
1979-03-01 12:39:18.960 ,3,0,0.,12.0,0.,12.0,0.,12.0,0.,12.0
1979-03-01 12:39:30.960 ,2,0,0.,12.0,0.,12.0,0.,12.0,0.,12.0
1979-03-01 12:39:42.960 ,2,0,0.,12.0,0.,12.0,0.,12.0,0.,12.0
1979-03-01 12:39:54.960 ,1,0,0.,12.0,0.,12.0,0.,12.0,0.,12.0
1979-03-01 12:40:06.960 ,1,0,0.,12.0,0.,12.0,0.,12.0,0.,12.0
1979-03-01 12:40:18.960 ,0,0,0.,12.0,0.,12.0,0.,12.0,0.,12.0
1979-03-01 12:40:30.960 ,0,0,0.,12.0,0.,12.0,0.,12.0,0.,12.0
1979-03-01 12:40:42.960 ,0,0,0.,12.0,0.,12.0,0.,12.0,0.,12.0
1979-03-01 12:40:54.960 ,0,0,0.,12.0,0.,12.0,0.,12.0,0.,12.0
1979-03-01 12:41:06.960 ,1,0,0.,12.0,0.,12.0,0.,12.0,0.,12.0
1979-03-01 12:41:18.960 ,1,0,0.,12.0,0.,12.0,0.,12.0,0.,12.0
1979-03-01 12:41:30.960 ,2,0,0.,12.0,0.,12.0,0.,12.0,0.,12.0
1979-03-01 12:41:42.960 ,2,0,0.,12.0,0.,12.0,0.,12.0,0.,12.0
1979-03-01 12:41:54.960 ,3,0,0.,12.0,0.,12.0,0.,12.0,0.,12.0
1979-03-01 12:42:06.960 ,3,0,0.,12.0,0.,12.0,0.,12.0,0.,12.0
1979-03-01 12:42:18.960 ,4,0,0.,12.0,0.,12.0,0.,12.0,0.,12.0
1979-03-01 12:42:30.960 ,4,0,0.,12.0,0.,12.0,0.,12.0,0.,12.0
1979-03-01 12:42:42.960 ,5,0,0.,12.0,0.,12.0,0.,12.0,0.,12.0
1979-03-01 12:42:54.960 ,5,0,0.,12.0,0.,12.0,0.,12.0,0.,12.0
1979-03-01 12:43:06.960 ,6,0,0.,12.0,0.,12.0,0.,12.0,0.,12.0
1979-03-01 12:43:18.960 ,6,0,0.,12.0,0.,12.0,0.,12.0,0.,12.0
1979-03-01 12:43:30.960 ,7,0,0.,12.0,0.,12.0,0.,12.0,0.,12.0
1979-03-01 12:43:42.960 ,7,0,0.,12.0,0.,12.0,0.,12.0,0.,12.0
1979-03-01 12:43:54.960 ,7,0,0.,12.0,0.,12.0,0.,12.0,0.,12.0
1979-03-01 12:44:06.960 ,7,0,0.,12.0,0.,12.0,0.,12.0,0.,12.0
1979-03-01 12:44:18.960 ,6,0,0.,12.0,0.,12.0,0.,12.0,0.,12.0
1979-03-01 12:44:30.960 ,6,0,0.,12.0,0.,12.0,0.,12.0,0.,12.0
1979-03-01 12:44:42.960 ,5,0,0.,12.0,0.,12.0,0.,12.0,0.,12.0
1979-03-01 12:44:54.960 ,5,0,0.,12.0,0.,12.0,0.,12.0,0.,12.0
1979-03-01 12:45:06.960 ,4,0,0.,12.0,0.,12.0,0.,12.0,0.,12.0
1979-03-01 12:45:18.960 ,4,0,0.,12.0,0.,12.0,0.,12.0,0.,12.0
1979-03-01 12:45:30.960 ,3,0,0.,12.0,0.,12.0,0.,12.0,0.,12.0
1979-03-01 12:45:42.960 ,3,0,0.,12.0,0.,12.0,0.,12.0,0.,12.0
1979-03-01 12:45:54.960 ,2,0,0.,12.0,0.,12.0,0.,12.0,0.,12.0
1979-03-01 12:46:06.960 ,2,0,0.,12.0,0.,12.0,0.,12.0,0.,12.0
1979-03-01 12:46:18.960 ,1,0,0.,12.0,0.,12.0,0.,12.0,0.,12.0
1979-03-01 12:46:30.960 ,1,0,0.,12.0,0.,12.0,0.,12.0,0.,12.0
1979-03-01 12:46:42.960 ,0,0,0.,12.0,0.,12.0,0.,12.0,0.,12.0
1979-03-01 12:46:54.960 ,0,0,0.,12.0,0.,12.0,0.,12.0,0.,12.0
1979-03-01 12:47:06.960 ,0,0,0.,12.0,0.,12.0,0.,12.0,0.,12.0
1979-03-01 12:47:18.960 ,0,0,0.,12.0,0.,12.0,0.,12.0,0.,12.0
1979-03-01 12:47:30.960 ,1,0,0.,12.0,0.,12.0,0.,12.0,0.,12.0
1979-03-01 12:47:42.960 ,1,0,0.,12.0,0.,12.0,0.,12.0,0.,12.0
1979-03-01 12:47:54.960 ,2,0,0.,12.0,0.,12.0,0.,12.0,0.,12.0
1979-03-01 12:48:06.960 ,2,0,0.,12.0,0.,12.0,0.,12.0,0.,12.0
1979-03-01 12:48:18.960 ,3,0,0.,12.0,0.,12.0,0.,12.0,0.,12.0
1979-03-01 12:48:30.960 ,3,0,0.,12.0,0.,12.0,0.,12.0,0.,12.0
1979-03-01 12:48:42.960 ,4,0,0.,12.0,0.,12.0,0.,12.0,0.,12.0
1979-03-01 12:48:54.960 ,4,0,0.,12.0,0.,12.0,0.,12.0,0.,12.0
1979-03-01 12:49:06.960 ,5,0,1.,12.0,0.,12.0,0.,12.0,0.,12.0
1979-03-01 12:49:18.960 ,5,0,0.,12.0,0.,12.0,0.,12.0,0.,12.0
1979-03-01 12:49:30.960 ,6,0,0.,12.0,0.,12.0,0.,12.0,0.,12.0
1979-03-01 12:49:42.960 ,6,0,0.,12.0,0.,12.0,0.,12.0,0.,12.0
1979-03-01 12:49:54.960 ,7,0,0.,12.0,0.,12.0,0.,12.0,0.,12.0
1979-03-01 12:50:06.960 ,7,0,0.,12.0,0.,12.0,0.,12.0,0.,12.0
1979-03-01 12:50:18.960 ,7,0,0.,12.0,0.,12.0,0.,12.0,0.,12.0
1979-03-01 12:50:30.960 ,7,0,0.,12.0,0.,12.0,0.,12.0,0.,12.0
1979-03-01 12:50:42.960 ,6,0,0.,12.0,0.,12.0,0.,12.0,0.,12.0
1979-03-01 12:50:54.960 ,6,0,0.,12.0,0.,12.0,0.,12.0,0.,12.0
1979-03-01 12:51:06.960 ,5,0,0.,12.0,0.,12.0,0.,12.0,0.,12.0
1979-03-01 12:51:18.960 ,5,0,0.,12.0,0.,12.0,0.,12.0,0.,12.0
1979-03-01 12:51:30.960 ,4,0,0.,12.0,0.,12.0,0.,12.0,0.,12.0
1979-03-01 12:51:42.960 ,4,0,0.,12.0,0.,12.0,0.,12.0,0.,12.0
1979-03-01 12:51:54.960 ,3,0,0.,12.0,0.,12.0,0.,12.0,0.,12.0
1979-03-01 12:52:06.960 ,3,0,0.,12.0,0.,12.0,0.,12.0,0.,12.0
1979-03-01 12:52:18.960 ,2,0,0.,12.0,0.,12.0,0.,12.0,0.,12.0
1979-03-01 12:52:30.960 ,2,0,0.,12.0,0.,12.0,0.,12.0,0.,12.0
1979-03-01 12:52:42.960 ,1,0,0.,12.0,0.,12.0,0.,12.0,0.,12.0
1979-03-01 12:52:54.960 ,1,0,0.,12.0,0.,12.0,0.,12.0,0.,12.0
1979-03-01 12:53:06.960 ,0,0,0.,12.0,0.,12.0,0.,12.0,0.,12.0
1979-03-01 12:53:18.960 ,0,0,0.,12.0,0.,12.0,0.,12.0,0.,12.0
1979-03-01 12:53:30.960 ,0,0,1.,12.0,0.,12.0,0.,12.0,0.,12.0
1979-03-01 12:53:42.960 ,0,0,0.,12.0,0.,12.0,0.,12.0,0.,12.0
1979-03-01 12:53:54.960 ,1,0,0.,12.0,0.,12.0,0.,12.0,0.,12.0
1979-03-01 12:54:06.960 ,1,0,0.,12.0,0.,12.0,0.,12.0,0.,12.0
1979-03-01 12:54:18.960 ,2,0,0.,12.0,0.,12.0,0.,12.0,0.,12.0
1979-03-01 12:54:30.960 ,2,0,0.,12.0,0.,12.0,0.,12.0,0.,12.0
1979-03-01 12:54:42.960 ,3,0,1.,12.0,0.,12.0,0.,12.0,0.,12.0
1979-03-01 12:54:54.960 ,3,0,0.,12.0,0.,12.0,0.,12.0,0.,12.0
1979-03-01 12:55:06.960 ,4,0,0.,12.0,0.,12.0,0.,12.0,0.,12.0
1979-03-01 12:55:18.960 ,4,0,0.,12.0,0.,12.0,0.,12.0,0.,12.0
1979-03-01 12:55:30.960 ,5,0,0.,12.0,0.,12.0,0.,12.0,0.,12.0
1979-03-01 12:55:42.960 ,5,0,0.,12.0,0.,12.0,0.,12.0,0.,12.0
1979-03-01 12:55:54.960 ,6,0,0.,12.0,0.,12.0,0.,12.0,0.,12.0
1979-03-01 12:56:06.960 ,6,0,0.,12.0,0.,12.0,0.,12.0,0.,12.0
1979-03-01 12:56:18.960 ,7,0,0.,12.0,0.,12.0,0.,12.0,0.,12.0
1979-03-01 12:56:30.960 ,7,0,0.,12.0,0.,12.0,0.,12.0,0.,12.0
1979-03-01 12:56:42.960 ,7,0,0.,12.0,0.,12.0,0.,12.0,0.,12.0
1979-03-01 12:56:54.960 ,7,0,0.,12.0,0.,12.0,0.,12.0,0.,12.0
1979-03-01 12:57:06.960 ,6,0,0.,12.0,0.,12.0,0.,12.0,0.,12.0
1979-03-01 12:57:18.960 ,6,0,0.,12.0,0.,12.0,0.,12.0,0.,12.0
1979-03-01 12:57:30.960 ,5,0,0.,12.0,0.,12.0,0.,12.0,0.,12.0
1979-03-01 12:57:42.960 ,5,0,0.,12.0,0.,12.0,0.,12.0,0.,12.0
1979-03-01 12:57:54.960 ,4,0,0.,12.0,0.,12.0,0.,12.0,0.,12.0
1979-03-01 12:58:06.960 ,4,0,0.,12.0,0.,12.0,0.,12.0,0.,12.0
1979-03-01 12:58:18.960 ,3,0,0.,12.0,0.,12.0,0.,12.0,0.,12.0
1979-03-01 12:58:30.960 ,3,0,0.,12.0,0.,12.0,0.,12.0,0.,12.0
1979-03-01 12:58:42.960 ,2,0,0.,12.0,0.,12.0,0.,12.0,0.,12.0
1979-03-01 12:58:54.960 ,2,0,1.,12.0,0.,12.0,0.,12.0,0.,12.0
1979-03-01 12:59:06.960 ,1,0,0.,12.0,0.,12.0,0.,12.0,0.,12.0
1979-03-01 12:59:18.960 ,1,0,0.,12.0,0.,12.0,0.,12.0,0.,12.0
1979-03-01 12:59:30.960 ,0,0,0.,12.0,0.,12.0,0.,12.0,0.,12.0
1979-03-01 12:59:42.960 ,0,0,0.,12.0,0.,12.0,0.,12.0,0.,12.0
1979-03-01 12:59:54.960 ,0,0,0.,12.0,0.,12.0,0.,12.0,0.,12.0
1979-03-01 13:00:06.960 ,0,0,0.,12.0,0.,12.0,0.,12.0,0.,12.0
1979-03-01 13:00:18.960 ,1,0,0.,12.0,0.,12.0,0.,12.0,0.,12.0
1979-03-01 13:00:30.960 ,1,0,0.,12.0,0.,12.0,0.,12.0,0.,12.0
1979-03-01 13:00:42.960 ,2,0,0.,12.0,0.,12.0,0.,12.0,0.,12.0
1979-03-01 13:00:54.960 ,2,0,0.,12.0,0.,12.0,0.,12.0,0.,12.0
1979-03-01 13:01:06.960 ,3,0,0.,12.0,0.,12.0,0.,12.0,0.,12.0
1979-03-01 13:01:18.960 ,3,0,0.,12.0,0.,12.0,0.,12.0,0.,12.0
1979-03-01 13:01:30.960 ,4,0,0.,12.0,0.,12.0,0.,12.0,0.,12.0
1979-03-01 13:01:42.960 ,4,0,0.,12.0,0.,12.0,0.,12.0,0.,12.0
1979-03-01 13:01:54.960 ,5,0,0.,12.0,0.,12.0,0.,12.0,0.,12.0
1979-03-01 13:02:06.960 ,5,0,0.,12.0,0.,12.0,0.,12.0,0.,12.0
1979-03-01 13:02:18.960 ,6,0,0.,12.0,0.,12.0,0.,12.0,0.,12.0
1979-03-01 13:02:30.960 ,6,0,0.,12.0,0.,12.0,0.,12.0,0.,12.0
1979-03-01 13:02:42.960 ,7,0,0.,12.0,0.,12.0,0.,12.0,0.,12.0
1979-03-01 13:02:54.960 ,7,0,0.,12.0,0.,12.0,0.,12.0,0.,12.0
1979-03-01 13:03:06.960 ,7,0,0.,12.0,0.,12.0,0.,12.0,0.,12.0
1979-03-01 13:03:18.960 ,7,0,0.,12.0,0.,12.0,0.,12.0,0.,12.0
1979-03-01 13:03:30.960 ,6,0,0.,12.0,0.,12.0,0.,12.0,0.,12.0
1979-03-01 13:03:42.960 ,6,0,0.,12.0,0.,12.0,0.,12.0,0.,12.0
1979-03-01 13:03:54.960 ,5,0,0.,12.0,0.,12.0,0.,12.0,0.,12.0
1979-03-01 13:04:06.960 ,5,0,0.,12.0,0.,12.0,0.,12.0,0.,12.0
1979-03-01 13:04:18.960 ,4,0,0.,12.0,0.,12.0,0.,12.0,0.,12.0
1979-03-01 13:04:30.960 ,4,0,0.,12.0,0.,12.0,0.,12.0,0.,12.0
1979-03-01 13:04:42.960 ,3,0,0.,12.0,0.,12.0,0.,12.0,0.,12.0
1979-03-01 13:04:54.960 ,3,0,0.,12.0,0.,12.0,0.,12.0,0.,12.0
1979-03-01 13:05:06.960 ,2,0,0.,12.0,0.,12.0,0.,12.0,0.,12.0
1979-03-01 13:05:18.960 ,2,0,0.,12.0,0.,12.0,0.,12.0,0.,12.0
1979-03-01 13:05:30.960 ,1,0,0.,12.0,0.,12.0,0.,12.0,0.,12.0
1979-03-01 13:05:42.960 ,1,0,0.,12.0,0.,12.0,0.,12.0,0.,12.0
1979-03-01 13:05:54.960 ,0,0,0.,12.0,0.,12.0,0.,12.0,0.,12.0
1979-03-01 13:06:06.960 ,0,0,0.,12.0,0.,12.0,0.,12.0,0.,12.0
1979-03-01 13:06:18.960 ,0,0,0.,12.0,0.,12.0,0.,12.0,0.,12.0
1979-03-01 13:06:30.960 ,0,0,0.,12.0,0.,12.0,0.,12.0,0.,12.0
1979-03-01 13:06:42.960 ,1,0,0.,12.0,0.,12.0,0.,12.0,0.,12.0
1979-03-01 13:06:54.960 ,1,0,0.,12.0,0.,12.0,0.,12.0,0.,12.0
1979-03-01 13:07:06.960 ,2,0,0.,12.0,0.,12.0,0.,12.0,0.,12.0
1979-03-01 13:07:18.960 ,2,0,0.,12.0,0.,12.0,0.,12.0,0.,12.0
1979-03-01 13:07:30.960 ,3,0,0.,12.0,0.,12.0,0.,12.0,0.,12.0
1979-03-01 13:07:42.960 ,3,0,0.,12.0,0.,12.0,0.,12.0,0.,12.0
1979-03-01 13:07:54.960 ,4,0,0.,12.0,0.,12.0,0.,12.0,0.,12.0
1979-03-01 13:08:06.960 ,4,0,0.,12.0,0.,12.0,0.,12.0,0.,12.0
1979-03-01 13:08:18.960 ,5,0,0.,12.0,0.,12.0,0.,12.0,0.,12.0
1979-03-01 13:08:30.960 ,5,0,0.,12.0,0.,12.0,0.,12.0,0.,12.0
1979-03-01 13:08:42.960 ,6,0,0.,12.0,0.,12.0,0.,12.0,0.,12.0
1979-03-01 13:08:54.960 ,6,0,0.,12.0,0.,12.0,0.,12.0,0.,12.0
1979-03-01 13:09:06.960 ,7,0,0.,12.0,0.,12.0,0.,12.0,0.,12.0
1979-03-01 13:09:18.960 ,7,0,0.,12.0,0.,12.0,0.,12.0,0.,12.0
1979-03-01 13:09:30.960 ,7,0,0.,12.0,0.,12.0,0.,12.0,0.,12.0
1979-03-01 13:09:42.960 ,7,0,0.,12.0,0.,12.0,0.,12.0,0.,12.0
1979-03-01 13:09:54.960 ,6,0,0.,12.0,0.,12.0,0.,12.0,0.,12.0
1979-03-01 13:10:06.960 ,6,0,0.,12.0,0.,12.0,0.,12.0,0.,12.0
1979-03-01 13:10:18.960 ,5,0,0.,12.0,0.,12.0,0.,12.0,0.,12.0
1979-03-01 13:10:30.960 ,5,0,0.,12.0,0.,12.0,0.,12.0,0.,12.0
1979-03-01 13:10:42.960 ,4,0,0.,12.0,0.,12.0,0.,12.0,0.,12.0
1979-03-01 13:10:54.960 ,4,0,0.,12.0,0.,12.0,0.,12.0,0.,12.0
1979-03-01 13:11:06.960 ,3,0,0.,12.0,0.,12.0,0.,12.0,0.,12.0
1979-03-01 13:11:18.960 ,3,0,1.,12.0,0.,12.0,0.,12.0,0.,12.0
1979-03-01 13:11:30.960 ,2,0,0.,12.0,0.,12.0,0.,12.0,0.,12.0
1979-03-01 13:11:42.960 ,2,0,0.,12.0,0.,12.0,0.,12.0,0.,12.0
1979-03-01 13:11:54.960 ,1,0,0.,12.0,0.,12.0,0.,12.0,0.,12.0
1979-03-01 13:12:06.960 ,1,0,0.,12.0,0.,12.0,0.,12.0,0.,12.0
1979-03-01 13:12:18.960 ,0,0,0.,12.0,0.,12.0,0.,12.0,0.,12.0
1979-03-01 13:12:30.960 ,0,0,0.,12.0,0.,12.0,0.,12.0,0.,12.0
1979-03-01 13:12:42.960 ,0,0,0.,12.0,0.,12.0,0.,12.0,0.,12.0
1979-03-01 13:12:54.960 ,0,0,1.,12.0,0.,12.0,0.,12.0,0.,12.0
1979-03-01 13:13:06.960 ,1,0,0.,12.0,0.,12.0,0.,12.0,0.,12.0
1979-03-01 13:13:18.960 ,1,0,0.,12.0,0.,12.0,0.,12.0,0.,12.0
1979-03-01 13:13:30.960 ,2,0,0.,12.0,0.,12.0,0.,12.0,0.,12.0
1979-03-01 13:13:42.960 ,2,0,0.,12.0,0.,12.0,0.,12.0,0.,12.0
1979-03-01 13:13:54.960 ,3,0,0.,12.0,0.,12.0,0.,12.0,0.,12.0
1979-03-01 13:14:06.960 ,3,0,0.,12.0,0.,12.0,0.,12.0,0.,12.0
1979-03-01 13:14:18.960 ,4,0,0.,12.0,0.,12.0,0.,12.0,0.,12.0
1979-03-01 13:14:30.960 ,4,0,0.,12.0,0.,12.0,0.,12.0,0.,12.0
1979-03-01 13:14:42.960 ,5,0,0.,12.0,0.,12.0,0.,12.0,0.,12.0
1979-03-01 13:14:54.960 ,5,0,0.,12.0,0.,12.0,0.,12.0,0.,12.0
1979-03-01 13:15:06.960 ,6,0,0.,12.0,0.,12.0,0.,12.0,0.,12.0
1979-03-01 13:15:18.960 ,6,0,0.,12.0,0.,12.0,0.,12.0,0.,12.0
1979-03-01 13:15:30.960 ,7,0,0.,12.0,0.,12.0,0.,12.0,0.,12.0
1979-03-01 13:15:42.960 ,7,0,0.,12.0,0.,12.0,0.,12.0,0.,12.0
1979-03-01 13:15:54.960 ,7,0,0.,12.0,0.,12.0,0.,12.0,0.,12.0
1979-03-01 13:16:06.960 ,7,0,0.,12.0,0.,12.0,0.,12.0,0.,12.0
1979-03-01 13:16:18.960 ,6,0,0.,12.0,0.,12.0,0.,12.0,0.,12.0
1979-03-01 13:16:30.960 ,6,0,0.,12.0,0.,12.0,0.,12.0,0.,12.0
1979-03-01 13:16:42.960 ,5,0,0.,12.0,0.,12.0,0.,12.0,0.,12.0
1979-03-01 13:16:54.960 ,5,0,0.,12.0,0.,12.0,0.,12.0,0.,12.0
1979-03-01 13:17:06.960 ,4,0,0.,12.0,0.,12.0,0.,12.0,0.,12.0
1979-03-01 13:17:18.960 ,4,0,0.,12.0,0.,12.0,0.,12.0,0.,12.0
1979-03-01 13:17:30.960 ,3,0,0.,12.0,0.,12.0,0.,12.0,0.,12.0
1979-03-01 13:17:42.960 ,3,0,1.,12.0,0.,12.0,0.,12.0,0.,12.0
1979-03-01 13:17:54.960 ,2,0,0.,12.0,0.,12.0,0.,12.0,0.,12.0
1979-03-01 13:18:06.960 ,2,0,0.,12.0,0.,12.0,0.,12.0,0.,12.0